Palmdale, CA

5:59 AM PDT on April 22, 2018 (GMT -0700)
Palmdale Af Plant 42

Weather History for KPMD - May, 2013

Change the Weather History Date:

Friday, May 17, 2013

  Actual Average Record
Temperature  
Mean Temperature 67 °F 68 °F  
Max Temperature 77 °F 84 °F 102 °F (2009)
Min Temperature 57 °F 53 °F 33 °F (1944)
Degree Days  
Heating Degree Days 0 2  
Month to date heating degree days 26 48  
Since 1 July heating degree days 2541 2898  
Cooling Degree Days 2 5  
Month to date cooling degree days 90 57  
Year to date cooling degree days 163 80  
Growing Degree Days 16 (Base 50)    
Moisture  
Dew Point 44 °F    
Average Humidity 46    
Maximum Humidity 62    
Minimum Humidity 29    
Precipitation  
Precipitation 0.00 in 0.01 in 0.04 in (1949)
Month to date precipitation T 0.19  
Year to date precipitation 0.71 5.17  
Since 1 July precipitation 1.00  
Snow  
Snow 0.00 in - 0.00 in (1973)
Month to date snowfall 0.0  
Since 1 July snowfall 0.0  
Snow Depth 0.00 in    
Sea Level Pressure  
Sea Level Pressure 29.89 in    
Wind  
Wind Speed 20 mph (WSW)    
Max Wind Speed 30 mph    
Max Gust Speed 43 mph    
Visibility 10 miles    
Events      
T = Trace of Precipitation, MM = Missing Value Source: NWS Daily Summary

Daily Weather History Graph

Daily Weather History Graph

Search for Another Location

Airport or City:

Astronomy

May. 17, 2013 Rise Set
Actual Time 5:47 AM PDT 7:50 PM PDT
Civil Twilight 5:19 AM PDT 8:18 PM PDT
Nautical Twilight 4:45 AM PDT 8:52 PM PDT
Astronomical Twilight 4:09 AM PDT 9:29 PM PDT
Moon 12:17 PM PDT (5/17) 12:51 AM PDT (5/17)
Length of Visible Light 14h 58m
Length of Day
14h 02m
Waxing Crescent, 46% of the Moon is Illuminated
May 17
Waxing Crescent
May 17
First Quarter
May 24
Full
May 31
Last Quarter
Jun 8
New

Hourly Weather History & Observations

Time (PDT) Temp. Dew Point Humidity Pressure Visibility Wind Dir Wind Speed Gust Speed Precip Events Conditions
12:53 AM 60.1 °F 46.0 °F 60% 29.86 in 10.0 mi SW 11.5 mph - N/A   Clear
1:53 AM 60.1 °F 42.1 °F 51% 29.86 in 10.0 mi WSW 11.5 mph - N/A   Clear
2:53 AM 60.1 °F 42.1 °F 51% 29.85 in 10.0 mi West 20.7 mph - N/A   Clear
3:53 AM 59.0 °F 43.0 °F 55% 29.85 in 10.0 mi West 19.6 mph - N/A   Clear
4:53 AM 57.9 °F 43.0 °F 58% 29.86 in 10.0 mi West 19.6 mph 25.3 mph N/A   Clear
5:53 AM 57.0 °F 43.0 °F 59% 29.87 in 10.0 mi West 23.0 mph - N/A   Clear
6:53 AM 57.9 °F 45.0 °F 62% 29.90 in 10.0 mi West 19.6 mph - N/A   Clear
7:53 AM 60.1 °F 44.1 °F 55% 29.90 in 10.0 mi West 23.0 mph - N/A   Clear
8:53 AM 63.0 °F 43.0 °F 48% 29.91 in 10.0 mi West 25.3 mph - N/A   Clear
9:53 AM 66.9 °F 41.0 °F 39% 29.90 in 10.0 mi WNW 20.7 mph 35.7 mph N/A   Clear
10:53 AM 70.0 °F 39.0 °F 32% 29.89 in 10.0 mi WNW 25.3 mph 32.2 mph N/A   Clear
11:53 AM 71.6 °F 42.8 °F 35% 29.94 in 10.0 mi SW 17.3 mph - N/A   Clear
12:00 PM 71.6 °F 42.8 °F 35% 29.94 in 10.0 mi SW 18.4 mph 25.3 mph N/A   Clear
12:53 PM 75.0 °F 41.0 °F 29% 29.86 in 10.0 mi WSW 17.3 mph 27.6 mph N/A   Clear
1:53 PM 75.9 °F 44.1 °F 32% 29.85 in 10.0 mi WSW 23.0 mph 32.2 mph N/A   Clear
2:53 PM 75.9 °F 44.1 °F 32% 29.85 in 3.0 mi West 23.0 mph 34.5 mph N/A   Haze
3:53 PM 73.0 °F 46.9 °F 39% 29.87 in 10.0 mi West 20.7 mph 32.2 mph N/A   Partly Cloudy
4:53 PM 71.1 °F 48.0 °F 44% 29.87 in 10.0 mi SW 24.2 mph 34.5 mph N/A   Partly Cloudy
5:53 PM 69.1 °F 48.0 °F 47% 29.88 in 10.0 mi WSW 21.9 mph 28.8 mph N/A   Clear
6:53 PM 66.9 °F 48.9 °F 52% 29.89 in 10.0 mi WSW 21.9 mph - N/A   Clear
7:53 PM 64.0 °F 48.9 °F 58% 29.90 in 10.0 mi WSW 21.9 mph - N/A   Clear
8:53 PM 62.1 °F 48.0 °F 60% 29.91 in 10.0 mi SW 21.9 mph 27.6 mph N/A   Clear
9:53 PM 62.1 °F 44.1 °F 52% 29.91 in 10.0 mi SW 17.3 mph - N/A   Clear
10:53 PM 63.0 °F 39.9 °F 43% 29.92 in 10.0 mi WSW 16.1 mph - N/A   Clear
11:53 PM 62.1 °F 42.1 °F 48% 29.92 in 10.0 mi WSW 13.8 mph - N/A   Clear